When you browse on this site, cookies collect data to enhance your experience and personalize the content and advertising you see.
Visit our Privacy Policy to learn more. By continuing to use the site, you agree to this use of cookies and data.

Hourly Weather Bregenz

Today, 8 August, Saturday

Time Temperature Precipitation Wind Pressure Humidity
00:00 +14°C° 0 mm 1 mps 651 mmHg 92%
01:00 +13°C° 0 mm 1 mps 651 mmHg 92%
02:00 +13°C° 0 mm 1 mps 651 mmHg 92%
03:00 +13°C° 0 mm 1 mps 651 mmHg 92%
04:00 +12°C° 0 mm 1 mps 651 mmHg 92%
05:00 +13°C° 0 mm 1 mps 651 mmHg 90%
06:00 +14°C° 0 mm 1 mps 651 mmHg 88%
07:00 +15°C° 0 mm 1 mps 652 mmHg 87%
08:00 +18°C° 0 mm 1 mps 652 mmHg 79%
09:00 +20°C° 0 mm 1 mps 653 mmHg 70%
10:00 +22°C° 0 mm 1 mps 654 mmHg 62%
11:00 +23°C° 0 mm 1 mps 654 mmHg 59%
12:00 +24°C° 0 mm 1 mps 654 mmHg 56%
13:00 +24°C° 0 mm 2 mps 654 mmHg 53%
14:00 +24°C° 0 mm 2 mps 653 mmHg 53%
15:00 +24°C° 0 mm 2 mps 653 mmHg 54%
16:00 +24°C° 0 mm 2 mps 653 mmHg 54%
17:00 +22°C° 0 mm 1 mps 653 mmHg 63%
18:00 +21°C° 0 mm 1 mps 652 mmHg 73%
19:00 +19°C° 0 mm 1 mps 652 mmHg 82%
20:00 +18°C° 0 mm 1 mps 651 mmHg 85%
21:00 +15°C° 0 mm 1 mps 651 mmHg 88%
22:00 +14°C° 0 mm 1 mps 651 mmHg 90%
23:00 +14°C° 0 mm 1 mps 651 mmHg 90%

Tomorrow, 9 August, Sunday

Time Temperature Precipitation Wind Pressure Humidity
00:00 +13°C° 0 mm 1 mps 650 mmHg 90%
01:00 +13°C° 0 mm 1 mps 650 mmHg 89%
02:00 +13°C° 0 mm 1 mps 650 mmHg 89%
03:00 +13°C° 0 mm 1 mps 650 mmHg 89%
04:00 +12°C° 0 mm 1 mps 650 mmHg 89%
05:00 +13°C° 0 mm 1 mps 650 mmHg 86%
06:00 +14°C° 0 mm 1 mps 650 mmHg 83%
07:00 +15°C° 0 mm 0 mps 651 mmHg 80%
08:00 +18°C° 0 mm 1 mps 651 mmHg 74%
09:00 +20°C° 0 mm 1 mps 652 mmHg 67%
10:00 +22°C° 0 mm 1 mps 652 mmHg 61%
11:00 +23°C° 0 mm 1 mps 652 mmHg 58%
12:00 +24°C° 0 mm 1 mps 652 mmHg 55%
13:00 +25°C° 0 mm 2 mps 652 mmHg 52%
14:00 +25°C° 0 mm 2 mps 652 mmHg 53%
15:00 +25°C° 0 mm 2 mps 652 mmHg 53%
16:00 +25°C° 0 mm 2 mps 651 mmHg 54%
17:00 +23°C° 0 mm 2 mps 651 mmHg 63%
18:00 +21°C° 0 mm 1 mps 650 mmHg 72%
19:00 +20°C° 0 mm 1 mps 650 mmHg 81%
20:00 +18°C° 0 mm 1 mps 649 mmHg 84%
21:00 +16°C° 0 mm 1 mps 649 mmHg 86%
22:00 +15°C° 0 mm 1 mps 649 mmHg 89%
23:00 +14°C° 0 mm 1 mps 649 mmHg 88%

Day after tomorrow, 10 August, Monday

Time Temperature Precipitation Wind Pressure Humidity
00:00 +14°C° 0 mm 1 mps 648 mmHg 88%
01:00 +14°C° 0 mm 1 mps 648 mmHg 87%
02:00 +13°C° 0 mm 1 mps 648 mmHg 87%
03:00 +13°C° 0 mm 1 mps 648 mmHg 87%
04:00 +13°C° 0 mm 1 mps 648 mmHg 87%
05:00 +14°C° 0 mm 1 mps 648 mmHg 84%
06:00 +15°C° 0 mm 1 mps 648 mmHg 82%
07:00 +16°C° 0 mm 1 mps 648 mmHg 80%
08:00 +19°C° 0 mm 1 mps 649 mmHg 74%
09:00 +21°C° 0 mm 1 mps 649 mmHg 68%
10:00 +23°C° 0 mm 1 mps 650 mmHg 61%
11:00 +23°C° 0 mm 1 mps 650 mmHg 59%
12:00 +24°C° 0 mm 1 mps 650 mmHg 57%
13:00 +25°C° 0 mm 2 mps 650 mmHg 55%
14:00 +25°C° 0.2 mm 2 mps 650 mmHg 56%
15:00 +25°C° 0.2 mm 2 mps 650 mmHg 57%
16:00 +24°C° 0.2 mm 1 mps 650 mmHg 58%
17:00 +23°C° 0.3 mm 1 mps 649 mmHg 67%
18:00 +21°C° 0.3 mm 1 mps 649 mmHg 75%
19:00 +20°C° 0.3 mm 1 mps 649 mmHg 84%
20:00 +18°C° 0.1 mm 1 mps 648 mmHg 86%
21:00 +16°C° 0.1 mm 1 mps 648 mmHg 87%
22:00 +15°C° 0.1 mm 1 mps 648 mmHg 89%
23:00 +15°C° 0 mm 1 mps 648 mmHg 88%

11 August, Tuesday

Time Temperature Precipitation Wind Pressure Humidity
00:00 +14°C° 0 mm 1 mps 648 mmHg 87%
01:00 +14°C° 0 mm 1 mps 648 mmHg 86%
02:00 +14°C° 0 mm 1 mps 648 mmHg 85%
03:00 +14°C° 0 mm 1 mps 648 mmHg 84%
04:00 +13°C° 0 mm 1 mps 648 mmHg 83%
05:00 +14°C° 0 mm 1 mps 648 mmHg 82%
06:00 +15°C° 0 mm 1 mps 648 mmHg 80%
07:00 +16°C° 0 mm 1 mps 649 mmHg 79%
08:00 +19°C° 0 mm 1 mps 650 mmHg 72%
09:00 +21°C° 0 mm 1 mps 650 mmHg 65%
10:00 +24°C° 0 mm 1 mps 651 mmHg 59%
11:00 +24°C° 0.1 mm 1 mps 651 mmHg 57%
12:00 +25°C° 0.1 mm 1 mps 651 mmHg 55%
13:00 +25°C° 0.1 mm 2 mps 651 mmHg 53%
14:00 +25°C° 0.8 mm 1 mps 651 mmHg 59%
15:00 +24°C° 0.8 mm 1 mps 651 mmHg 65%
16:00 +23°C° 0.8 mm 1 mps 651 mmHg 70%
17:00 +22°C° 1.5 mm 1 mps 650 mmHg 77%
18:00 +19°C° 1.5 mm 2 mps 649 mmHg 83%
19:00 +17°C° 1.5 mm 2 mps 649 mmHg 89%
20:00 +16°C° 1.7 mm 2 mps 649 mmHg 90%
21:00 +15°C° 1.7 mm 2 mps 649 mmHg 91%
22:00 +14°C° 1.7 mm 2 mps 649 mmHg 92%
23:00 +14°C° 0.1 mm 2 mps 649 mmHg 90%

12 August, Wednesday

Time Temperature Precipitation Wind Pressure Humidity
00:00 +13°C° 0.1 mm 2 mps 648 mmHg 88%
01:00 +13°C° 0.1 mm 2 mps 648 mmHg 87%
02:00 +13°C° 0 mm 2 mps 648 mmHg 86%
03:00 +13°C° 0 mm 1 mps 648 mmHg 85%
04:00 +13°C° 0 mm 1 mps 648 mmHg 84%
05:00 +14°C° 0 mm 1 mps 648 mmHg 82%
06:00 +15°C° 0 mm 1 mps 649 mmHg 81%
07:00 +16°C° 0 mm 1 mps 649 mmHg 79%
08:00 +19°C° 0 mm 1 mps 650 mmHg 72%
09:00 +21°C° 0 mm 1 mps 650 mmHg 64%
10:00 +24°C° 0 mm 1 mps 651 mmHg 57%
11:00 +24°C° 0 mm 1 mps 651 mmHg 55%
12:00 +25°C° 0 mm 1 mps 651 mmHg 53%
13:00 +25°C° 0 mm 1 mps 651 mmHg 51%
14:00 +25°C° 0.2 mm 1 mps 651 mmHg 53%
15:00 +25°C° 0.2 mm 1 mps 650 mmHg 55%
16:00 +25°C° 0.2 mm 1 mps 650 mmHg 56%
17:00 +23°C° 0.4 mm 1 mps 650 mmHg 65%
18:00 +22°C° 0.4 mm 1 mps 649 mmHg 74%
19:00 +18°C° 0.4 mm 0 mps 649 mmHg 82%
20:00 +19°C° 0 mm 1 mps 649 mmHg 83%
21:00 +18°C° 0 mm 1 mps 649 mmHg 84%
22:00 +16°C° 0 mm 1 mps 648 mmHg 84%
23:00 +16°C° 0 mm 1 mps 648 mmHg 83%

13 August, Thursday

Time Temperature Precipitation Wind Pressure Humidity
00:00 +15°C° 0 mm 1 mps 648 mmHg 83%
01:00 +15°C° 0 mm 1 mps 648 mmHg 82%
02:00 +15°C° 0.2 mm 1 mps 648 mmHg 84%
03:00 +14°C° 0.2 mm 1 mps 648 mmHg 87%
04:00 +14°C° 0.2 mm 1 mps 648 mmHg 89%
05:00 +15°C° 0.2 mm 1 mps 649 mmHg 89%
06:00 +15°C° 0.2 mm 1 mps 649 mmHg 88%
07:00 +16°C° 0.2 mm 1 mps 649 mmHg 88%
08:00 +19°C° 0 mm 1 mps 650 mmHg 79%
09:00 +21°C° 0 mm 1 mps 651 mmHg 70%
10:00 +23°C° 0 mm 1 mps 651 mmHg 61%
11:00 +24°C° 0 mm 1 mps 651 mmHg 58%
12:00 +25°C° 0 mm 1 mps 651 mmHg 55%
13:00 +25°C° 0 mm 2 mps 651 mmHg 52%
14:00 +25°C° 0.4 mm 1 mps 651 mmHg 57%
15:00 +24°C° 0.4 mm 1 mps 651 mmHg 62%
16:00 +23°C° 0.4 mm 1 mps 651 mmHg 66%
17:00 +22°C° 0.6 mm 1 mps 650 mmHg 71%
18:00 +19°C° 0.6 mm 2 mps 650 mmHg 77%
19:00 +17°C° 0.6 mm 2 mps 650 mmHg 82%
20:00 +16°C° 0.1 mm 2 mps 650 mmHg 80%
21:00 +15°C° 0.1 mm 2 mps 650 mmHg 79%
22:00 +15°C° 0.1 mm 2 mps 650 mmHg 78%
23:00 +14°C° 0 mm 2 mps 649 mmHg 77%
Show more